Location: New Town
(33.2710°N, 90.7534°W)
Time: 01:54:02
(UTC+00:00)

Tiros 1 - Visible Passes

Search period start: 12 May 2021 00:00
Search period end: 22 May 2021 00:00
Orbit: 630 x 664 km, 48.4° (Epoch: 11 May)

Date Brightness Start Highest point End Pass type
(mag) Time Alt. Az. Time Alt. Az. Time Alt. Az.
12 May 9.5 07:11:00 22° NNE 07:11:00 22° NNE 07:12:57 10° NE visible
12 May 9.7 08:49:07 10° NW 08:51:47 15° NNW 08:54:25 10° NNE visible
12 May 9.8 10:33:06 10° NNW 10:35:36 14° N 10:38:06 10° NE visible
13 May 9.3 07:35:19 21° NNW 07:35:19 21° NNW 07:38:33 10° NNE visible
13 May 9.9 09:16:27 10° NNW 09:18:31 13° N 09:20:36 10° NNE visible
14 May 10.0 06:21:58 14° NE 06:21:58 14° NE 06:22:44 10° NE visible
14 May 9.7 07:59:35 12° NW 08:01:28 15° NNW 08:04:12 10° NNE visible
14 May 9.9 09:42:50 10° NNW 09:45:17 14° N 09:47:43 10° NE visible
15 May 9.7 06:46:10 19° N 06:46:10 19° N 06:48:22 10° NNE visible
15 May 10.0 08:26:04 10° NNW 08:28:12 13° N 08:30:19 10° NNE visible
15 May 9.8 10:08:35 10° NNW 10:11:56 19° NNE 10:15:16 10° ENE visible
16 May 9.8 07:10:15 15° NNW 07:11:09 16° NNW 07:14:01 10° NNE visible
16 May 10.0 08:52:34 10° NNW 08:54:58 14° N 08:57:21 10° NE visible
17 May 9.8 05:56:36 17° NNE 05:56:36 17° NNE 05:58:11 10° NNE visible
17 May 10.1 07:35:41 10° NNW 07:37:52 13° N 07:40:03 10° NNE visible
17 May 9.9 09:18:22 10° NNW 09:21:39 18° NNE 09:24:53 10° ENE visible
18 May 9.8 06:20:15 16° NNW 06:20:49 16° NNW 06:23:48 10° NNE visible
18 May 10.1 08:02:17 10° NNW 08:04:39 13° N 08:06:59 10° NE visible
18 May 9.2 09:43:59 10° NNW 09:48:07 28° NNE 09:52:13 10° E visible
19 May 9.4 03:16:38 10° SW 03:28:06 - NE 03:17:09 13° SW visible
19 May 9.5 05:05:33 21° N 05:05:33 21° N 05:07:59 10° NNE visible
19 May 10.2 06:45:18 10° NNW 06:47:33 13° N 06:49:47 10° NNE visible
19 May 9.9 08:28:09 10° NNW 08:31:20 17° NNE 08:34:30 10° ENE visible
19 May 8.0 10:09:39 10° NW 10:14:21 56° NE 10:18:58 10° ESE visible
20 May 8.1 02:01:26 10° S 02:05:26 27° SE 02:09:26 10° ENE visible
20 May 8.0 03:42:45 10° WSW 03:47:25 50° NW 03:52:07 10° NE visible
20 May 9.9 05:27:24 10° NW 05:30:31 17° NNW 05:33:36 10° NNE visible
20 May 10.2 07:12:01 10° NNW 07:14:19 13° N 07:16:37 10° NE visible
20 May 9.3 08:53:46 10° NNW 08:57:50 27° NNE 09:01:52 10° E visible
21 May 7.1 02:26:26 10° SW 02:31:11 66° SE 02:35:58 10° ENE visible
21 May 9.2 04:09:37 10° W 04:13:41 27° NNW 04:17:47 10° NNE visible
21 May 10.2 05:54:54 10° NW 05:57:13 13° N 05:59:31 10° NNE visible
21 May 10.0 07:37:55 10° NNW 07:41:01 17° NNE 07:44:06 10° NE visible
21 May 8.0 09:19:25 10° NW 09:24:05 51° NE 09:28:41 10° ESE visible
